When you browse on this site, cookies collect data to enhance your experience and personalize the content and advertising you see.
Visit our Privacy Policy to learn more. By continuing to use the site, you agree to this use of cookies and data.
EN

Hourly Weather Zoruchowo

Today, 21 September, Monday

Time Temperature Precipitation Wind Pressure Humidity
00:00 +13°C° 0 mm 2 mps 761 mmHg 74%
01:00 +13°C° 0 mm 2 mps 762 mmHg 77%
02:00 +12°C° 0 mm 2 mps 762 mmHg 75%
03:00 +12°C° 0 mm 2 mps 761 mmHg 73%
04:00 +12°C° 0 mm 2 mps 761 mmHg 70%
05:00 +12°C° 0 mm 2 mps 761 mmHg 69%
06:00 +13°C° 0 mm 2 mps 761 mmHg 67%
07:00 +13°C° 0 mm 2 mps 761 mmHg 64%
08:00 +15°C° 0 mm 2 mps 761 mmHg 57%
09:00 +17°C° 0 mm 2 mps 761 mmHg 50%
10:00 +20°C° 0 mm 1 mps 761 mmHg 43%
11:00 +20°C° 0 mm 2 mps 761 mmHg 39%
12:00 +21°C° 0 mm 2 mps 761 mmHg 35%
13:00 +23°C° 0 mm 2 mps 760 mmHg 31%
14:00 +23°C° 0 mm 1 mps 760 mmHg 35%
15:00 +22°C° 0 mm 1 mps 760 mmHg 39%
16:00 +22°C° 0 mm 1 mps 759 mmHg 43%
17:00 +20°C° 0 mm 1 mps 759 mmHg 50%
18:00 +18°C° 0 mm 1 mps 759 mmHg 57%
19:00 +15°C° 0 mm 1 mps 759 mmHg 64%
20:00 +14°C° 0 mm 1 mps 759 mmHg 65%
21:00 +14°C° 0 mm 2 mps 758 mmHg 67%
22:00 +14°C° 0 mm 2 mps 758 mmHg 68%
23:00 +13°C° 0 mm 3 mps 758 mmHg 70%

Tomorrow, 22 September, Tuesday

Time Temperature Precipitation Wind Pressure Humidity
00:00 +13°C° 0 mm 3 mps 758 mmHg 72%
01:00 +12°C° 0 mm 3 mps 758 mmHg 74%
02:00 +12°C° 0 mm 3 mps 757 mmHg 74%
03:00 +12°C° 0 mm 3 mps 757 mmHg 74%
04:00 +12°C° 0 mm 3 mps 757 mmHg 75%
05:00 +12°C° 0 mm 3 mps 757 mmHg 74%
06:00 +13°C° 0 mm 3 mps 757 mmHg 74%
07:00 +13°C° 0 mm 3 mps 757 mmHg 73%
08:00 +17°C° 0 mm 3 mps 756 mmHg 66%
09:00 +19°C° 0 mm 3 mps 756 mmHg 59%
10:00 +21°C° 0 mm 3 mps 756 mmHg 52%
11:00 +24°C° 0 mm 3 mps 756 mmHg 48%
12:00 +25°C° 0 mm 3 mps 755 mmHg 44%
13:00 +26°C° 0 mm 2 mps 755 mmHg 40%
14:00 +26°C° 0 mm 2 mps 755 mmHg 42%
15:00 +26°C° 0 mm 2 mps 754 mmHg 44%
16:00 +26°C° 0 mm 2 mps 754 mmHg 46%
17:00 +24°C° 0 mm 2 mps 753 mmHg 51%
18:00 +21°C° 0 mm 3 mps 753 mmHg 56%
19:00 +19°C° 0 mm 3 mps 753 mmHg 60%
20:00 +19°C° 0 mm 3 mps 752 mmHg 62%
21:00 +18°C° 0 mm 3 mps 752 mmHg 64%
22:00 +17°C° 0 mm 4 mps 752 mmHg 66%
23:00 +17°C° 0 mm 4 mps 752 mmHg 67%

Day after tomorrow, 23 September, Wednesday

Time Temperature Precipitation Wind Pressure Humidity
00:00 +17°C° 0 mm 4 mps 752 mmHg 69%
01:00 +15°C° 0 mm 4 mps 751 mmHg 71%
02:00 +15°C° 0 mm 4 mps 751 mmHg 73%
03:00 +15°C° 0 mm 4 mps 751 mmHg 74%
04:00 +15°C° 0 mm 4 mps 751 mmHg 76%
05:00 +15°C° 0 mm 4 mps 751 mmHg 76%
06:00 +15°C° 0 mm 4 mps 751 mmHg 76%
07:00 +17°C° 0 mm 4 mps 751 mmHg 75%
08:00 +19°C° 0 mm 4 mps 751 mmHg 69%
09:00 +21°C° 0 mm 3 mps 751 mmHg 62%
10:00 +24°C° 0 mm 3 mps 751 mmHg 56%
11:00 +25°C° 0 mm 3 mps 751 mmHg 52%
12:00 +26°C° 0 mm 2 mps 751 mmHg 49%
13:00 +27°C° 0 mm 2 mps 751 mmHg 46%
14:00 +26°C° 0 mm 2 mps 750 mmHg 48%
15:00 +26°C° 0 mm 2 mps 750 mmHg 51%
16:00 +25°C° 0 mm 2 mps 750 mmHg 53%
17:00 +24°C° 0 mm 2 mps 750 mmHg 59%
18:00 +22°C° 0 mm 1 mps 750 mmHg 64%
19:00 +20°C° 0 mm 1 mps 750 mmHg 70%
20:00 +19°C° 0 mm 2 mps 750 mmHg 71%
21:00 +19°C° 0 mm 2 mps 750 mmHg 72%
22:00 +18°C° 0 mm 2 mps 750 mmHg 73%
23:00 +18°C° 0 mm 2 mps 749 mmHg 75%

24 September, Thursday

Time Temperature Precipitation Wind Pressure Humidity
00:00 +18°C° 0 mm 2 mps 749 mmHg 77%
01:00 +18°C° 0 mm 2 mps 749 mmHg 80%
02:00 +17°C° 0 mm 3 mps 749 mmHg 80%
03:00 +17°C° 0 mm 3 mps 749 mmHg 81%
04:00 +16°C° 0 mm 3 mps 749 mmHg 82%
05:00 +16°C° 0 mm 3 mps 749 mmHg 80%
06:00 +16°C° 0 mm 3 mps 749 mmHg 78%
07:00 +15°C° 0 mm 4 mps 749 mmHg 76%
08:00 +18°C° 0 mm 4 mps 749 mmHg 68%
09:00 +20°C° 0 mm 5 mps 750 mmHg 60%
10:00 +22°C° 0 mm 5 mps 750 mmHg 52%
11:00 +23°C° 0 mm 5 mps 750 mmHg 51%
12:00 +25°C° 0 mm 5 mps 750 mmHg 50%
13:00 +24°C° 0 mm 6 mps 750 mmHg 50%
14:00 +23°C° 0.1 mm 5 mps 750 mmHg 55%
15:00 +22°C° 0.1 mm 5 mps 750 mmHg 61%
16:00 +21°C° 0.1 mm 4 mps 751 mmHg 67%
17:00 +20°C° 0.5 mm 3 mps 751 mmHg 76%
18:00 +18°C° 0.5 mm 2 mps 751 mmHg 85%
19:00 +16°C° 0.5 mm 1 mps 751 mmHg 94%
20:00 +16°C° 0 mm 1 mps 751 mmHg 94%
21:00 +16°C° 0 mm 1 mps 751 mmHg 94%
22:00 +15°C° 0 mm 1 mps 751 mmHg 94%
23:00 +15°C° 0 mm 1 mps 751 mmHg 94%

25 September, Friday

Time Temperature Precipitation Wind Pressure Humidity
00:00 +15°C° 0 mm 2 mps 751 mmHg 94%
01:00 +15°C° 0 mm 2 mps 751 mmHg 94%
02:00 +15°C° 0 mm 2 mps 751 mmHg 93%
03:00 +14°C° 0 mm 3 mps 750 mmHg 93%
04:00 +14°C° 0 mm 3 mps 750 mmHg 92%
05:00 +16°C° 0 mm 3 mps 749 mmHg 90%
06:00 +16°C° 0 mm 3 mps 749 mmHg 89%
07:00 +15°C° 0 mm 4 mps 749 mmHg 88%
08:00 +18°C° 0 mm 4 mps 748 mmHg 80%
09:00 +20°C° 0 mm 4 mps 748 mmHg 73%
10:00 +22°C° 0 mm 4 mps 747 mmHg 65%
11:00 +23°C° 0 mm 5 mps 747 mmHg 61%
12:00 +23°C° 0 mm 5 mps 746 mmHg 57%
13:00 +25°C° 0 mm 5 mps 746 mmHg 53%
14:00 +23°C° 0.2 mm 5 mps 745 mmHg 57%
15:00 +23°C° 0.2 mm 5 mps 744 mmHg 62%
16:00 +22°C° 0.2 mm 4 mps 744 mmHg 66%
17:00 +21°C° 0.6 mm 4 mps 743 mmHg 74%
18:00 +19°C° 0.6 mm 5 mps 743 mmHg 82%
19:00 +17°C° 0.6 mm 5 mps 743 mmHg 89%
20:00 +16°C° 1.2 mm 6 mps 743 mmHg 90%
21:00 +15°C° 1.2 mm 7 mps 743 mmHg 91%
22:00 +13°C° 1.2 mm 8 mps 742 mmHg 91%
23:00 +13°C° 3 mm 8 mps 743 mmHg 91%

26 September, Saturday

Time Temperature Precipitation Wind Pressure Humidity
00:00 +12°C° 3 mm 9 mps 743 mmHg 92%
01:00 +12°C° 3 mm 9 mps 743 mmHg 92%
02:00 +12°C° 1.3 mm 8 mps 743 mmHg 90%
03:00 +11°C° 1.3 mm 7 mps 744 mmHg 89%
04:00 +11°C° 1.3 mm 6 mps 744 mmHg 88%
05:00 +11°C° 0 mm 6 mps 745 mmHg 87%
06:00 +12°C° 0 mm 5 mps 746 mmHg 86%
07:00 +12°C° 0 mm 5 mps 747 mmHg 85%
08:00 +13°C° 0 mm 5 mps 747 mmHg 80%
09:00 +13°C° 0 mm 5 mps 748 mmHg 76%
10:00 +14°C° 0 mm 5 mps 749 mmHg 72%
11:00 +15°C° 0 mm 5 mps 749 mmHg 67%
12:00 +15°C° 0 mm 5 mps 750 mmHg 62%
13:00 +16°C° 0 mm 5 mps 750 mmHg 57%
14:00 +15°C° 0 mm 4 mps 750 mmHg 57%
15:00 +16°C° 0 mm 3 mps 751 mmHg 58%
16:00 +16°C° 0 mm 3 mps 751 mmHg 58%
17:00 +14°C° 0 mm 3 mps 751 mmHg 64%
18:00 +14°C° 0 mm 2 mps 751 mmHg 71%
19:00 +13°C° 0 mm 2 mps 752 mmHg 77%
20:00 +13°C° 0 mm 2 mps 752 mmHg 77%
21:00 +13°C° 0 mm 2 mps 752 mmHg 77%
22:00 +13°C° 0 mm 2 mps 752 mmHg 77%
23:00 +12°C° 0.7 mm 3 mps 752 mmHg 81%
Show more